STARLINK-5311 (55288 NORAD) Tracking and Keplerian Element Data

This shows tracking and keplerian element data for the satellite.

Feedback or suggestion? Click here.




ElementValue
Catalog55288
NameSTARLINK-5311
Epoch Orbit1739
Epoch Day127.11436959
Epoch Year2023
RAAN126.4449
Inclination69.998
Eccentricity0.0003658
Argument of Perigee263.4255
Mean Anonmoly96.6524
Mean Motion15.69780307
Decay Rate-0.00018271
L11 55288U 23010V 23127.11436959 -.00018271 00000+0 -15140-3 0 9991
L22 55288 69.9980 126.4449 0003658 263.4255 96.6524 15.69780307 17398



Live tracking and technical data element details for STARLINK-5311 (NORAD 55288). STARLINK-5311 can be tracked NOW for your location showing map with azimuth and elevation plus other details from your city location.







IsCatalogInMostPopularTable: catalog: 55288, numindb: 2
Update: records affected: 1



GetName: 55288 STARLINK-5311

Hit Count: updated at: Mon, 05 Jun 2023 20:43:09 GMT